TimeCDT,TemperatureF,Dew PointF,Humidity,Sea Level PressureIn,VisibilityMPH,Wind Direction,Wind SpeedMPH,Gust SpeedMPH,PrecipitationIn,Events,Conditions,WindDirDegrees,DateUTC
12:57 AM,64.0,55.9,75,29.96,10.0,SE,5.8,-,N/A,,Clear,140,2013-05-09 05:57:00
1:57 AM,64.9,55.9,73,29.94,10.0,SSE,8.1,-,N/A,,Scattered Clouds,160,2013-05-09 06:57:00
2:57 AM,66.9,55.9,68,29.92,10.0,South,11.5,-,N/A,,Mostly Cloudy,190,2013-05-09 07:57:00
3:57 AM,64.0,55.9,75,29.92,10.0,South,16.1,-,0.00,Rain,Light Rain,180,2013-05-09 08:57:00
4:57 AM,61.0,57.0,87,29.91,10.0,South,5.8,-,0.04,Rain,Light Rain,170,2013-05-09 09:57:00
5:57 AM,60.1,57.9,93,29.89,10.0,SE,5.8,-,0.00,,Overcast,130,2013-05-09 10:57:00
6:30 AM,60.8,57.2,88,29.95,10.0,SSE,8.1,-,0.00,Rain-Thunderstorm,Light Rain,160,2013-05-09 11:30:00
6:48 AM,59.0,55.4,88,30.00,7.0,West,16.1,20.7,0.31,Rain-Thunderstorm,Light Thunderstorms and Rain,280,2013-05-09 11:48:00
6:57 AM,59.0,57.2,94,30.02,9.0,WSW,10.4,-,0.32,Rain-Thunderstorm,Rain,250,2013-05-09 11:57:00
6:59 AM,59.0,57.0,93,29.99,8.0,WSW,10.4,-,0.33,Rain-Thunderstorm,Rain,240,2013-05-09 11:59:00
7:02 AM,59.0,57.2,94,30.02,8.0,SW,9.2,-,0.00,Rain,Rain,230,2013-05-09 12:02:00
7:14 AM,59.0,57.2,94,30.02,10.0,SSW,11.5,-,0.03,Rain,Rain,210,2013-05-09 12:14:00
7:31 AM,57.2,57.2,100,30.02,10.0,SSW,10.4,-,0.06,Rain,Light Rain,210,2013-05-09 12:31:00
7:57 AM,57.2,57.2,100,29.98,10.0,South,12.7,-,0.12,Rain,Light Rain,170,2013-05-09 12:57:00
7:59 AM,57.9,57.0,97,29.95,10.0,SSE,13.8,-,0.12,Rain,Light Rain,160,2013-05-09 12:59:00
8:57 AM,59.0,55.9,90,29.93,10.0,South,8.1,-,0.02,Rain,Light Rain,190,2013-05-09 13:57:00
9:57 AM,61.0,55.9,83,29.94,10.0,WSW,3.5,-,0.00,,Clear,250,2013-05-09 14:57:00
10:57 AM,64.9,55.9,73,29.95,10.0,WSW,11.5,-,N/A,,Overcast,240,2013-05-09 15:57:00
11:57 AM,70.0,57.0,63,29.95,10.0,WSW,12.7,-,N/A,,Mostly Cloudy,240,2013-05-09 16:57:00
12:57 PM,72.0,57.9,61,29.93,10.0,West,10.4,-,N/A,,Mostly Cloudy,260,2013-05-09 17:57:00
1:57 PM,75.0,59.0,57,29.94,10.0,South,12.7,-,N/A,,Overcast,180,2013-05-09 18:57:00
2:57 PM,75.0,59.0,57,29.93,10.0,SSW,13.8,-,N/A,,Mostly Cloudy,210,2013-05-09 19:57:00
3:57 PM,75.0,59.0,57,29.93,10.0,SW,13.8,18.4,N/A,,Mostly Cloudy,230,2013-05-09 20:57:00
4:57 PM,72.0,57.9,61,29.92,10.0,SSW,8.1,-,N/A,,Overcast,200,2013-05-09 21:57:00
5:21 PM,71.6,59.0,64,29.94,9.0,SW,8.1,-,0.01,Rain-Thunderstorm,Light Rain,220,2013-05-09 22:21:00
5:45 PM,64.4,60.8,88,29.95,4.0,South,13.8,26.5,0.22,Rain-Thunderstorm,Heavy Thunderstorms and Rain,190,2013-05-09 22:45:00
5:51 PM,62.6,57.2,82,29.95,5.0,SSW,6.9,21.9,0.22,Rain-Thunderstorm,Light Thunderstorms and Rain,200,2013-05-09 22:51:00
5:57 PM,62.1,57.9,86,29.95,10.0,West,4.6,-,0.22,Rain-Thunderstorm,Light Thunderstorms and Rain,260,2013-05-09 22:57:00
6:29 PM,62.6,60.8,94,29.96,10.0,Calm,Calm,-,0.01,Rain,Light Rain,0,2013-05-09 23:29:00
6:41 PM,62.6,60.8,94,29.95,10.0,East,4.6,-,0.01,Rain-Thunderstorm,Light Rain,100,2013-05-09 23:41:00
6:57 PM,63.0,61.0,93,29.92,8.0,East,4.6,-,0.02,Rain-Thunderstorm,Light Rain,90,2013-05-09 23:57:00
7:13 PM,62.6,60.8,94,29.98,6.0,WNW,8.1,-,0.04,Rain,Light Rain,290,2013-05-10 00:13:00
7:52 PM,62.6,60.8,94,29.96,2.0,SE,8.1,-,0.33,Rain-Thunderstorm,Heavy Thunderstorms and Rain,140,2013-05-10 00:52:00
7:57 PM,62.6,60.8,94,29.96,2.0,SSE,9.2,-,0.36,Rain-Thunderstorm,Heavy Thunderstorms and Rain,160,2013-05-10 00:57:00
7:59 PM,62.1,61.0,96,29.95,2.5,SSE,10.4,-,0.37,Rain-Thunderstorm,Thunderstorms and Rain,150,2013-05-10 00:59:00
8:02 PM,62.6,60.8,94,29.97,4.0,SSE,9.2,-,0.01,Rain-Thunderstorm,Thunderstorms and Rain,160,2013-05-10 01:02:00
8:05 PM,62.6,60.8,94,29.97,4.0,South,9.2,-,0.03,Rain-Thunderstorm,Thunderstorms and Rain,170,2013-05-10 01:05:00
8:08 PM,62.6,60.8,94,29.97,4.0,SE,4.6,-,0.06,Rain-Thunderstorm,Heavy Thunderstorms and Rain,140,2013-05-10 01:08:00
8:45 PM,60.8,60.8,100,29.98,8.0,SSE,6.9,-,0.29,Rain-Thunderstorm,Light Thunderstorms and Rain,160,2013-05-10 01:45:00
8:57 PM,60.8,60.8,100,29.98,5.0,SSE,13.8,-,0.35,Rain-Thunderstorm,Thunderstorms and Rain,150,2013-05-10 01:57:00
8:59 PM,61.0,60.1,97,29.96,6.0,SSE,15.0,-,0.35,Rain-Thunderstorm,Light Thunderstorms and Rain,160,2013-05-10 01:59:00
9:54 PM,60.8,59.0,94,29.98,10.0,NNE,4.6,-,0.28,Rain-Thunderstorm,Light Rain,30,2013-05-10 02:54:00
9:57 PM,61.0,59.0,93,29.96,10.0,NE,4.6,-,0.28,Rain-Thunderstorm,Light Rain,40,2013-05-10 02:57:00
10:06 PM,60.8,59.0,94,29.98,10.0,NE,4.6,-,0.00,,Mostly Cloudy,40,2013-05-10 03:06:00
10:14 PM,60.8,59.0,94,29.97,10.0,ENE,3.5,-,0.00,,Mostly Cloudy,70,2013-05-10 03:14:00
10:18 PM,60.8,59.0,94,29.97,10.0,Calm,Calm,-,0.00,,Mostly Cloudy,0,2013-05-10 03:18:00
10:26 PM,60.8,59.0,94,29.97,10.0,NE,3.5,-,0.00,Thunderstorm,Mostly Cloudy,50,2013-05-10 03:26:00
10:43 PM,60.8,60.8,100,29.98,10.0,SE,4.6,-,0.00,Thunderstorm,Mostly Cloudy,130,2013-05-10 03:43:00
10:57 PM,61.0,59.0,93,29.96,10.0,SSE,5.8,-,0.00,Rain,Light Rain,150,2013-05-10 03:57:00
11:06 PM,60.8,59.0,94,29.97,9.0,Variable,4.6,-,0.00,Rain-Thunderstorm,Light Rain,0,2013-05-10 04:06:00
11:29 PM,60.8,59.0,94,29.97,2.5,ENE,4.6,-,0.17,Rain-Thunderstorm,Heavy Thunderstorms and Rain,70,2013-05-10 04:29:00
11:35 PM,60.8,59.0,94,-9999,1.8,North,-9999.0,-,0.26,Rain-Thunderstorm,Heavy Thunderstorms and Rain,0,2013-05-10 04:35:00
11:39 PM,60.8,59.0,94,29.98,2.5,NNE,4.6,-,0.27,Rain-Thunderstorm,Thunderstorms and Rain,30,2013-05-10 04:39:00
11:45 PM,60.8,59.0,94,29.99,3.0,NNE,10.4,-,0.44,Rain-Thunderstorm,Heavy Thunderstorms and Rain,20,2013-05-10 04:45:00
11:53 PM,60.8,59.0,94,29.98,1.8,ESE,12.7,17.3,0.82,Rain-Thunderstorm,Heavy Thunderstorms and Rain,110,2013-05-10 04:53:00
11:57 PM,59.0,57.2,94,29.98,2.0,SE,11.5,19.6,0.88,Rain-Thunderstorm,Heavy Thunderstorms and Rain,140,2013-05-10 04:57:00
11:59 PM,59.0,57.2,94,29.99,2.5,SE,15.0,19.6,0.90,Rain-Thunderstorm,Heavy Thunderstorms and Rain,130,2013-05-10 04:59:00